Weather History for KGOV - October, 2012

Change the Weather History Date:

Sunday, October 14, 2012

  Actual Average (KHTL) Record (KHTL)
Temperature  
Mean Temperature 58 °F 46 °F  
Max Temperature 67 °F 57 °F 80 °F (1920)
Min Temperature 48 °F 36 °F 19 °F (1937)
Degree Days  
Heating Degree Days 6 19  
Month to date heating degree days 229  
Since 1 July heating degree days 610  
Cooling Degree Days 0 0  
Month to date cooling degree days 0  
Year to date cooling degree days 285  
Growing Degree Days 8 (Base 50)    
Moisture  
Dew Point 57 °F    
Average Humidity 98    
Maximum Humidity 100    
Minimum Humidity 81    
Precipitation  
Precipitation 0.00 in 0.08 in 2.52 in (1941)
Month to date precipitation 1.21  
Year to date precipitation 23.43  
Snow  
Snow 0.00 in 0.00 in 3.50 in (1980)
Month to date snowfall 0.1  
Since 1 July snowfall 0.1  
Snow Depth -    
Sea Level Pressure  
Sea Level Pressure 29.55 in    
Wind  
Wind Speed 5 mph (SSW)    
Max Wind Speed 17 mph    
Max Gust Speed 29 mph    
Visibility 5 miles    
Events Fog , Rain    
T = Trace of Precipitation, MM = Missing Value Source: NWS Daily Summary

Daily Weather History Graph

Daily Weather History Graph

Search for Another Location

Airport or City:

Trip Planner

Search our weather history database for the weather conditions in past years. The results will help you decide how hot, cold, wet, or windy it might be!

Date:

Astronomy

Oct. 14, 2012 Rise Set
Actual Time 7:53 AM EDT 6:55 PM EDT
Civil Twilight 7:24 AM EDT 7:24 PM EDT
Nautical Twilight 6:50 AM EDT 7:58 PM EDT
Astronomical Twilight 6:16 AM EDT 8:32 PM EDT
Moon 6:51 AM EDT (10/14) 6:13 PM EDT (10/14)
Length of Visible Light 12h 00m
Length of Day
11h 01m
Waning Crescent, 1% of the Moon is Illuminated
Oct 14
Waning Crescent
Oct 15
New
Oct 21
First Quarter
Oct 29
Full
Nov 6
Last Quarter

Hourly Weather History & Observations

Time (EDT) Temp. Dew Point Humidity Pressure Visibility Wind Dir Wind Speed Gust Speed Precip Events Conditions
12:11 AM 52.3 °F 52.3 °F 100% 29.78 in 10.0 mi SSW 8.1 mph - N/A   Overcast
12:31 AM 52.3 °F 52.3 °F 100% 29.78 in 10.0 mi SW 6.9 mph - N/A   Overcast
1:11 AM 54.9 °F 54.9 °F 100% 29.77 in 7.0 mi SW 4.6 mph - N/A   Overcast
1:31 AM 54.9 °F 54.9 °F 100% 29.78 in 2.5 mi SW 4.6 mph - N/A   Overcast
1:51 AM 54.9 °F 54.9 °F 100% 29.78 in 1.8 mi SW 4.6 mph - N/A   Overcast
2:11 AM 54.9 °F 54.9 °F 100% 29.78 in 1.5 mi Calm Calm - N/A   Overcast
2:31 AM 54.9 °F 54.9 °F 100% 29.79 in 1.0 mi Calm Calm - N/A Rain Light Rain
2:51 AM 54.9 °F 54.9 °F 100% 29.79 in 0.5 mi Calm Calm - N/A   Light Drizzle
3:31 AM 54.9 °F 54.9 °F 100% 29.78 in 1.0 mi Calm Calm - N/A   Overcast
3:51 AM 54.7 °F 54.7 °F 100% 29.76 in 0.5 mi Calm Calm - N/A Fog Fog
4:12 AM 54.9 °F 54.9 °F 100% 29.76 in 0.8 mi Calm Calm - N/A   Overcast
4:32 AM 53.4 °F 53.4 °F 100% 29.76 in 0.5 mi Calm Calm - N/A Fog Fog
4:52 AM 54.9 °F 54.9 °F 100% 29.76 in 0.5 mi Calm Calm - N/A Fog Fog
5:12 AM 52.3 °F 52.3 °F 100% 29.76 in 0.5 mi Calm Calm - N/A Fog Fog
5:32 AM 54.3 °F 54.3 °F 100% 29.76 in 0.5 mi Calm Calm - N/A Fog Fog
5:52 AM 54.9 °F 54.9 °F 100% 29.75 in 0.8 mi ESE 3.5 mph - N/A   Overcast
6:12 AM 54.9 °F 54.9 °F 100% 29.75 in 0.5 mi Calm Calm - N/A Fog Fog
6:32 AM 54.9 °F 54.9 °F 100% 29.75 in 0.5 mi Calm Calm - N/A Rain Rain
6:52 AM 54.9 °F 54.9 °F 100% 29.73 in 0.5 mi East 4.6 mph - N/A Rain Heavy Rain
7:12 AM 54.9 °F 54.9 °F 100% 29.72 in 3.0 mi Calm Calm - N/A Rain Rain
7:32 AM 54.9 °F 54.9 °F 100% 29.71 in 4.0 mi Calm Calm - N/A Rain Rain
7:52 AM 54.9 °F 54.9 °F 100% 29.70 in 2.5 mi Calm Calm - N/A Rain Heavy Rain
8:12 AM 54.9 °F 54.9 °F 100% 29.70 in 2.0 mi Calm Calm - N/A Rain Heavy Rain
8:33 AM 54.9 °F 54.9 °F 100% 29.69 in 4.0 mi ENE 3.5 mph - N/A Rain Light Rain
8:53 AM 54.9 °F 54.9 °F 100% 29.68 in 2.0 mi Calm Calm - N/A Rain Heavy Rain
9:13 AM 54.9 °F 54.9 °F 100% 29.67 in 2.5 mi East 4.6 mph - N/A Rain Heavy Rain
9:33 AM 55.9 °F 55.9 °F 100% 29.67 in 2.5 mi Calm Calm - N/A Rain Rain
9:53 AM 55.6 °F 55.6 °F 100% 29.64 in 4.0 mi Calm Calm - N/A Rain Rain
10:13 AM 55.0 °F 55.0 °F 100% 29.62 in 7.0 mi NE 3.5 mph - N/A Rain Rain
10:33 AM 56.1 °F 56.1 °F 100% 29.62 in 5.0 mi Calm Calm - N/A Rain Rain
10:53 AM 56.5 °F 56.5 °F 100% 29.60 in 4.0 mi Calm Calm - N/A Rain Rain
11:13 AM 57.4 °F 57.4 °F 100% 29.58 in 2.5 mi Calm Calm - N/A Rain Rain
11:33 AM 57.4 °F 57.4 °F 100% 29.56 in 3.0 mi Calm Calm - N/A Rain Rain
11:54 AM 57.6 °F 57.6 °F 100% 29.54 in 2.5 mi NE 4.6 mph - N/A Rain Rain
12:14 PM 59.9 °F 59.9 °F 100% 29.52 in 1.8 mi ENE 4.6 mph - N/A Rain Heavy Rain
12:34 PM 62.1 °F 62.1 °F 100% 29.51 in 2.0 mi SE 5.8 mph - N/A Rain Heavy Rain
12:54 PM 62.4 °F 62.4 °F 100% 29.49 in 3.0 mi SSE 6.9 mph - N/A Rain Rain
1:14 PM 62.6 °F 62.6 °F 100% 29.48 in 3.0 mi South 8.1 mph - N/A Rain Rain
1:34 PM 62.8 °F 62.8 °F 100% 29.47 in 4.0 mi South 16.1 mph 23.0 mph N/A Rain Light Rain
1:54 PM 62.8 °F 62.8 °F 100% 29.46 in 10.0 mi SSW 12.7 mph 28.8 mph N/A   Light Drizzle
2:14 PM 63.1 °F 63.1 °F 100% 29.45 in 10.0 mi SSW 11.5 mph 23.0 mph N/A   Overcast
2:34 PM 63.5 °F 63.5 °F 100% 29.45 in 10.0 mi SSW 12.7 mph 26.5 mph N/A   Overcast
2:54 PM 63.1 °F 63.0 °F 99% 29.44 in 10.0 mi SW 9.2 mph 17.3 mph N/A   Overcast
3:15 PM 64.9 °F 62.8 °F 93% 29.43 in 10.0 mi SW 9.2 mph 18.4 mph N/A   Overcast
3:35 PM 65.5 °F 61.7 °F 88% 29.42 in 10.0 mi SSW 11.5 mph - N/A   Overcast
3:55 PM 67.3 °F 62.6 °F 85% 29.41 in 10.0 mi SW 6.9 mph - N/A   Overcast
4:10 PM 67.5 °F 62.1 °F 83% 29.40 in 10.0 mi SSW 8.1 mph 16.1 mph N/A   Overcast
4:30 PM 67.5 °F 61.3 °F 81% 29.39 in 10.0 mi SSW 11.5 mph - N/A   Overcast
4:50 PM 64.9 °F 60.8 °F 86% 29.38 in 10.0 mi SW 6.9 mph 16.1 mph N/A   Overcast
5:10 PM 64.8 °F 61.0 °F 88% 29.37 in 5.0 mi SSW 4.6 mph - N/A Rain Heavy Rain
5:30 PM 63.1 °F 61.9 °F 96% 29.36 in 7.0 mi South 4.6 mph - N/A Rain Light Rain
5:50 PM 63.3 °F 62.1 °F 96% 29.36 in 10.0 mi South 9.2 mph 17.3 mph N/A Rain Light Rain
6:10 PM 62.8 °F 61.0 °F 94% 29.35 in 10.0 mi SSW 10.4 mph 16.1 mph N/A   Mostly Cloudy
6:31 PM 62.6 °F 61.0 °F 94% 29.35 in 10.0 mi SSW 8.1 mph - N/A   Overcast
6:51 PM 62.6 °F 61.0 °F 94% 29.35 in 5.0 mi SSW 10.4 mph - N/A Rain Rain
7:11 PM 62.4 °F 61.5 °F 97% 29.34 in 10.0 mi SSW 10.4 mph 17.3 mph N/A Rain Rain
7:31 PM 61.2 °F 60.1 °F 96% 29.33 in 10.0 mi SW 10.4 mph - N/A   Mostly Cloudy
7:51 PM 61.2 °F 60.8 °F 99% 29.33 in 10.0 mi SSW 6.9 mph - N/A   Overcast
8:11 PM 61.2 °F 60.1 °F 96% 29.32 in 10.0 mi SSW 9.2 mph 17.3 mph N/A   Overcast
8:31 PM 60.6 °F 59.5 °F 96% 29.32 in 7.0 mi SSW 10.4 mph 16.1 mph N/A Rain Rain
8:51 PM 59.9 °F 58.6 °F 96% 29.32 in 10.0 mi SW 12.7 mph 24.2 mph N/A   Overcast
9:12 PM 57.4 °F 56.3 °F 96% 29.33 in 10.0 mi WSW 11.5 mph 24.2 mph N/A   Overcast
9:32 PM 54.9 °F 53.4 °F 95% 29.34 in 7.0 mi WSW 16.1 mph 24.2 mph N/A Rain Light Rain
9:52 PM 52.0 °F 51.3 °F 97% 29.36 in 4.0 mi West 16.1 mph 25.3 mph N/A   Overcast
10:12 PM 50.0 °F 49.5 °F 98% 29.37 in 4.0 mi West 15.0 mph 20.7 mph N/A Rain Light Rain
10:32 PM 50.0 °F 49.1 °F 97% 29.37 in 5.0 mi West 12.7 mph 23.0 mph N/A   Overcast
10:52 PM 50.0 °F 49.3 °F 97% 29.37 in 3.0 mi West 17.3 mph 24.2 mph N/A Rain Light Rain
11:12 PM 50.0 °F 49.5 °F 98% 29.37 in 2.5 mi West 12.7 mph 20.7 mph N/A Rain Light Rain
11:32 PM 50.0 °F 49.5 °F 98% 29.38 in 5.0 mi West 11.5 mph 21.9 mph N/A   Overcast
11:53 PM 48.6 °F 47.7 °F 97% 29.40 in 10.0 mi WNW 15.0 mph 24.2 mph N/A   Overcast